Rock Springs, WY

6:38 AM MST on February 24, 2017 (GMT -0700)
Rock Springs-Sweetwater

Weather History for KRKS - October, 2011

Change the Weather History Date:

Tuesday, October 4, 2011

  Actual Average Record
Temperature  
Mean Temperature 60 °F 49 °F  
Max Temperature 71 °F 62 °F 77 °F (1970)
Min Temperature 49 °F 36 °F 22 °F (2012)
Degree Days  
Heating Degree Days 5 16  
Month to date heating degree days 18 62  
Since 1 July heating degree days 157 390  
Cooling Degree Days 0 0  
Month to date cooling degree days 0 0  
Year to date cooling degree days 333 286  
Growing Degree Days 10 (Base 50)    
Moisture  
Dew Point 40 °F    
Average Humidity 54    
Maximum Humidity 74    
Minimum Humidity 34    
Precipitation  
Precipitation T in 0.03 in 0.72 in (1998)
Month to date precipitation T 0.12  
Year to date precipitation 6.51 6.82  
Snow  
Snow 0.00 in - - ()
Snow Depth 0.00 in    
Sea Level Pressure  
Sea Level Pressure 29.84 in    
Wind  
Wind Speed 15 mph (South)    
Max Wind Speed 24 mph    
Max Gust Speed 44 mph    
Visibility 10 miles    
Events Rain    
T = Trace of Precipitation, MM = Missing Value Source: NWS Daily Summary

Daily Weather History Graph

Daily Weather History Graph

Search for Another Location

Airport or City:

Trip Planner

Search our weather history database for the weather conditions in past years. The results will help you decide how hot, cold, wet, or windy it might be!

Date:

Astronomy

Oct. 04, 2011 Rise Set
Actual Time 7:16 AM MDT 6:53 PM MDT
Civil Twilight 6:48 AM MDT 7:20 PM MDT
Nautical Twilight 6:16 AM MDT 7:53 PM MDT
Astronomical Twilight 5:43 AM MDT 8:25 PM MDT
Moon 3:02 PM MDT (10/4) No Moon Set
Length of Visible Light 12h 32m
Length of Day
11h 37m
First Quarter, 56% of the Moon is Illuminated
Oct 4
First Quarter
Oct 11
Full
Oct 19
Last Quarter
Oct 26
New
Nov 2
First Quarter

Hourly Weather History & Observations

Time (MDT) Temp. Dew Point Humidity Pressure Visibility Wind Dir Wind Speed Gust Speed Precip Events Conditions
12:54 AM 55.9 °F 43.0 °F 62% 29.90 in 10.0 mi South 12.7 mph 23.0 mph N/A   Partly Cloudy
2:54 AM 55.9 °F 42.1 °F 60% 29.87 in 10.0 mi SSE 12.7 mph - N/A   Mostly Cloudy
3:54 AM 55.9 °F 41.0 °F 57% 29.85 in 10.0 mi South 9.2 mph - N/A   Mostly Cloudy
4:54 AM 55.0 °F 41.0 °F 59% 29.85 in 10.0 mi South 12.7 mph 20.7 mph N/A   Clear
5:54 AM 52.0 °F 39.9 °F 63% 29.87 in 10.0 mi NW 3.5 mph - N/A   Clear
6:54 AM 55.0 °F 41.0 °F 59% 29.87 in 10.0 mi Calm Calm - N/A   Scattered Clouds
7:54 AM 55.4 °F 39.2 °F 54% 30.09 in 10.0 mi SE 4.6 mph - N/A   Partly Cloudy
8:54 AM 57.9 °F 41.0 °F 53% 29.88 in 10.0 mi SE 13.8 mph - N/A   Mostly Cloudy
9:54 AM 64.0 °F 39.9 °F 41% 29.85 in 10.0 mi South 20.7 mph 29.9 mph N/A   Scattered Clouds
10:54 AM 66.9 °F 37.9 °F 34% 29.82 in 10.0 mi SSW 24.2 mph 33.4 mph N/A   Clear
11:54 AM 60.8 °F 39.2 °F 45% 30.06 in 10.0 mi SW 34.5 mph 42.6 mph N/A Rain Light Rain
12:54 PM 69.8 °F 35.6 °F 28% 30.03 in 10.0 mi SW 25.3 mph 32.2 mph N/A   Clear
1:54 PM 66.9 °F 37.0 °F 33% 29.78 in 10.0 mi SSW 20.7 mph 36.8 mph N/A   Scattered Clouds
2:54 PM 64.0 °F 37.9 °F 38% 29.77 in 10.0 mi SSE 19.6 mph - 0.00 in   Overcast
3:54 PM 63.0 °F 37.9 °F 40% 29.75 in 10.0 mi South 21.9 mph 28.8 mph N/A   Clear
4:54 PM 63.0 °F 39.0 °F 41% 29.75 in 10.0 mi South 23.0 mph 33.4 mph N/A   Clear
5:54 PM 61.0 °F 41.0 °F 48% 29.78 in 10.0 mi South 21.9 mph 29.9 mph N/A   Scattered Clouds
6:54 PM 57.0 °F 37.9 °F 49% 29.77 in 10.0 mi South 31.1 mph 40.3 mph 0.00 in Rain Light Rain
7:54 PM 52.0 °F 42.1 °F 69% 29.79 in 10.0 mi South 15.0 mph 24.2 mph 0.00 in   Clear
8:54 PM 54.0 °F 39.9 °F 59% 29.77 in 10.0 mi South 16.1 mph 23.0 mph N/A   Clear
9:54 PM 52.0 °F 41.0 °F 66% 29.76 in 10.0 mi South 12.7 mph 21.9 mph N/A   Clear
10:54 PM 50.0 °F 43.0 °F 77% 29.72 in 10.0 mi SSE 19.6 mph 25.3 mph N/A   Clear
11:54 PM 50.0 °F 43.0 °F 77% 29.74 in 10.0 mi South 15.0 mph - N/A   Clear